COSMOS 2251 DEB, 35668

Orbit data source: Space-Track

COSMOS 2251 DEB, 35668 is space debris in LEO originally from a launch on Wed, 16 Jun 1993 UTC launched from the Plesetsk Missile And Space Complex (PKMTR). The debris from Iridium 33, an American commercial communications satellite, has been tracked extensively since its accidental collision with the defunct Russian satellite Cosmos 2251 in 2009. This event, occurring at high speed in low Earth orbit (LEO), generated thousands of pieces of space debris, significantly increasing the risk of further collisions. The Iridium 33 debris cloud has impacted space traffic management and orbital debris mitigation strategies, making it a subject of ongoing study in space situational awareness.

Loading next visibility...
Identifier
35668, 1993-036APK
Orbit
LEO
Country
Flag of CISCIS
Related business
Manufacturer
Unknown
Mission
Spacecraft
Bus & Motor
Unknown
Mass
Unknown
Launch date (UTC)
1993-06-16 (33 years ago)
Launch vehicle
Unknown
Launch site
Plesetsk Missile And Space Complex (PKMTR)
Object type
Payload
Rocket body
Debris
Shape & HBR
Unknown shape, 0.1 m
Radar Cross Section
Small (<0.1 m²)

Expand to show TLE details & history
Last TLE update: 1 day ago

TLE from 1 day ago
0 COSMOS 2251 DEB
1 35668U 93036APK 26119.26882677  .00001154  00000-0  21360-3 0  9990
2 35668  74.0442 316.4330 0081602  26.4918 334.0385 14.64433713896609
Epoch: 2026-04-29T06:27Z
TLE epoch observation values (Epoch: 2026-04-29T06:27:06.632Z)
Latitude
-0.00003°
Longitude
2.42314°
Altitude
629.847 km
Speed
7.571 km/s
True Right ascension
21h 05m 43s
True Declination
0° 00' 00"
Sunlit
Object was in daylight at epoch
Visualization orbit readout
Latitude
Unknown
Longitude
Unknown
Altitude
Unknown
Speed
Unknown
Apparent Right ascension
Unknown
Apparent Declination
Unknown
Sunlit
N/A
Visualization observer readout
Local Sidereal Time
01:24:00
Azimuth
Unknown
Elevation
Unknown
Doppler factor
Unknown
Orbital elements
Apogee altitude
734.053 km
Perigee altitude
618.919 km
Semi-major axis
7,054.623 km
Eccentricity
0.00816
Inclination
74.0442°
RAAN
316.433°
Arg. of periapsis
26.4918°
True anomaly
333.62536°
Mean anomaly
334.0385°
Eccentric anomaly
333.83231°
Mean motion
3.66296 °/min
Orbital period
98.28 mins
BSTAR
0.0002136

Documentation

Showing up to 5 results
|